Location: Austin
(30.3000°N, 97.7500°W)
Time: 00:18:37
(UTC-05:00)

Meteor 2-15 - Pass Details

Date: 10 January 2026
Orbit: 937 x 954 km, 82.5° (Epoch: 15 May)

Event Time Altitude Azimuth Distance (km) Brightness Sun altitude
Rises 19:35:23 0° 352° (N) 3,627 7.4 -22.6°
Reaches altitude 10° 19:37:53 10° 352° (N) 2,677 6.7 -23.1°
Maximum altitude 19:44:01 84° 266° (W) 956 4.4 -24.4°
Drops below altitude 10° 19:50:05 10° 178° (S) 2,652 6.9 -25.7°
Sets 19:52:33 0° 178° (S) 3,591 7.6 -26.2°
